Date,TemperatureHighF,TemperatureAvgF,TemperatureLowF,DewpointHighF,DewpointAvgF,DewpointLowF,HumidityHigh,HumidityAvg,HumidityLow,PressureMaxIn,PressureMinIn,WindSpeedMaxMPH,WindSpeedAvgMPH,GustSpeedMaxMPH,PrecipitationSumIn
2013-2-1,45.5,43.3,41.1,42.4,41.1,39.6,98,92,84,29.83,29.54,19,8,29,0.29
2013-2-2,42.8,41.3,39.2,40.4,36.7,32.8,92,84,75,30.29,29.74,19,9,26,0.02
2013-2-3,48.4,44.9,39.8,48.4,41.7,-99.9,100,94,79,30.30,30.03,16,-3,22,0.15
2013-2-4,48.5,46.4,42.1,48.2,43.4,39.4,99,89,77,30.11,29.84,24,13,29,0.05
2013-2-5,45.6,41.6,37.0,42.4,37.7,33.1,93,86,79,29.84,29.57,24,17,34,0.23
2013-2-6,44.2,41.8,38.8,40.0,37.0,33.9,92,83,73,30.21,29.65,27,14,34,0.04
2013-2-7,44.6,41.6,37.4,43.5,37.6,33.7,97,86,76,30.22,29.92,22,9,31,0.23
2013-2-8,44.3,42.8,38.4,43.1,39.6,37.1,96,89,79,30.24,30.10,17,9,26,0.02
2013-2-9,48.3,45.5,43.1,46.7,44.3,41.5,98,96,93,30.21,29.76,10,5,14,0.01
2013-2-10,47.3,44.0,41.4,46.8,42.3,36.4,98,94,80,29.77,29.24,16,10,24,0.43
2013-2-11,46.3,40.1,35.6,42.6,37.6,33.7,96,91,83,29.76,29.27,8,3,12,0.05
2013-2-12,41.9,37.7,35.0,38.3,35.5,33.7,100,92,83,30.02,29.76,15,5,20,0.01
2013-2-13,49.1,42.4,37.5,48.6,41.0,35.0,98,95,91,30.02,29.91,24,16,35,0.15
2013-2-14,49.7,46.6,44.3,49.2,45.4,43.2,100,96,91,30.05,29.77,18,8,22,0.31
2013-2-15,48.4,44.4,39.8,44.8,42.2,36.4,97,92,85,30.17,30.05,10,3,11,0.00
2013-2-16,50.6,43.7,39.7,45.3,40.5,36.1,95,89,77,30.16,30.07,12,7,14,0.00
2013-2-17,47.2,42.4,38.2,41.5,39.0,36.1,97,88,73,30.07,29.81,26,12,38,0.00
2013-2-18,49.4,41.8,37.8,40.6,37.5,35.4,93,85,69,30.00,29.82,25,18,33,0.00
2013-2-19,49.7,41.0,36.3,42.7,37.6,33.5,95,88,72,30.02,29.96,17,8,20,0.00
2013-2-20,46.5,39.8,34.6,41.9,36.8,33.1,97,89,79,30.04,29.97,24,10,30,0.01
2013-2-21,40.7,35.9,30.8,34.0,30.5,25.1,88,81,71,30.07,29.96,24,15,33,0.00
2013-2-22,35.1,30.8,26.6,26.3,23.8,21.8,83,75,68,30.11,30.01,14,8,19,0.00
2013-2-23,38.3,33.4,29.6,31.3,27.1,23.0,84,78,67,30.23,30.10,10,5,13,0.00
2013-2-24,39.3,34.7,31.5,31.5,28.3,26.6,87,78,65,30.34,30.22,12,6,17,0.00
2013-2-25,40.5,37.7,31.6,36.6,33.1,27.4,88,83,74,30.41,30.32,13,8,17,0.00
2013-2-26,41.8,39.2,37.1,38.9,36.1,34.6,92,89,86,30.52,30.36,15,8,20,0.00
2013-2-27,39.1,36.8,30.5,36.9,34.6,29.0,94,92,89,30.54,30.43,12,6,16,0.00
2013-2-28,41.8,36.7,30.4,34.1,31.2,27.8,96,81,68,30.43,30.32,10,5,15,0.00